{"data":{"norad_id":26388,"intl_designator":"2000-034A","name":"TDRS 8","alt_names":[],"object_type":"PAYLOAD","status":"ACTIVE","operator":null,"country":"US","launch_date":"2000-06-30","launch_site_code":"AFETR","launch_vehicle":null,"mission":null,"orbit_class":"UNKNOWN","rcs_meters":26.766,"size_class":null,"mass_kg":null,"dimensions":null,"purposes":["comms"],"wikipedia_slug":null,"has_3d_model":false,"image_url":null,"decayed_at":null,"tle_current":{"epoch":"2026-09-19T20:52:57.117792Z","epoch_age_seconds":65674,"freshness":"FRESH","line1":"1 26388U 00034A   26262.87010553 -.00000194  00000+0  00000+0 0  9994","line2":"2 26388  12.8315  30.4998 0001137 121.7220 244.5790  1.00269952 96133","mean_motion":1.00269952,"eccentricity":0.0001137,"inclination_deg":12.8315,"raan_deg":30.4998,"arg_perigee_deg":121.722,"mean_anomaly_deg":244.579,"bstar":0,"rev_number":9613,"period_min":1436.1231568157,"perigee_km":35782.314637008,"apogee_km":35791.903013909,"semimajor_km":42165.245825459,"source":"CELESTRAK","updated_at":"2026-09-20T09:00:35.117988Z"}}}